When you browse on this site, cookies collect data to enhance your experience and personalize the content and advertising you see.
Visit our Privacy Policy to learn more. By continuing to use the site, you agree to this use of cookies and data.
  • In Hungary
  • List of Countries
  • For 7 days
  • Water Temperature
  • Satellite Maps
  • Weather Map
  • News
  • Weather Widgets
  • user-avatar
    Login

    Hourly Weather Dosso

    Today, 17 January, Thursday

    Time Temperature Precipitation Wind Pressure Humidity
    00:00 +24°C° 0 mm 3 mps 739 mmHg 7%
    01:00 +23°C° 0 mm 4 mps 739 mmHg 7%
    02:00 +22°C° 0 mm 4 mps 739 mmHg 7%
    03:00 +22°C° 0 mm 4 mps 739 mmHg 7%
    04:00 +21°C° 0 mm 4 mps 739 mmHg 7%
    05:00 +21°C° 0 mm 4 mps 739 mmHg 8%
    06:00 +20°C° 0 mm 4 mps 739 mmHg 8%
    07:00 +23°C° 0 mm 4 mps 739 mmHg 7%
    08:00 +26°C° 0 mm 5 mps 740 mmHg 6%
    09:00 +29°C° 0 mm 6 mps 740 mmHg 5%
    10:00 +32°C° 0 mm 5 mps 740 mmHg 5%
    11:00 +35°C° 0 mm 5 mps 740 mmHg 4%
    12:00 +38°C° 0 mm 4 mps 739 mmHg 4%
    13:00 +38°C° 0 mm 4 mps 739 mmHg 4%
    14:00 +40°C° 0 mm 4 mps 738 mmHg 4%
    15:00 +39°C° 0 mm 3 mps 737 mmHg 5%
    16:00 +37°C° 0 mm 3 mps 737 mmHg 6%
    17:00 +34°C° 0 mm 3 mps 737 mmHg 7%
    18:00 +31°C° 0 mm 3 mps 737 mmHg 8%
    19:00 +30°C° 0 mm 3 mps 738 mmHg 9%
    20:00 +29°C° 0 mm 3 mps 738 mmHg 9%
    21:00 +28°C° 0 mm 4 mps 739 mmHg 9%
    22:00 +28°C° 0 mm 4 mps 739 mmHg 9%
    23:00 +27°C° 0 mm 4 mps 739 mmHg 10%

    Tomorrow, 18 January, Friday

    Time Temperature Precipitation Wind Pressure Humidity
    00:00 +27°C° 0 mm 4 mps 739 mmHg 10%
    01:00 +26°C° 0 mm 4 mps 738 mmHg 10%
    02:00 +25°C° 0 mm 4 mps 738 mmHg 10%
    03:00 +25°C° 0 mm 4 mps 738 mmHg 10%
    04:00 +23°C° 0 mm 4 mps 738 mmHg 10%
    05:00 +23°C° 0 mm 4 mps 738 mmHg 10%
    06:00 +22°C° 0 mm 4 mps 738 mmHg 11%
    07:00 +26°C° 0 mm 5 mps 739 mmHg 9%
    08:00 +29°C° 0 mm 5 mps 739 mmHg 8%
    09:00 +32°C° 0 mm 6 mps 740 mmHg 7%
    10:00 +35°C° 0 mm 6 mps 739 mmHg 7%
    11:00 +38°C° 0 mm 6 mps 739 mmHg 6%
    12:00 +41°C° 0 mm 6 mps 738 mmHg 6%
    13:00 +41°C° 0 mm 5 mps 738 mmHg 6%
    14:00 +42°C° 0 mm 5 mps 737 mmHg 6%
    15:00 +42°C° 0 mm 4 mps 736 mmHg 6%
    16:00 +38°C° 0 mm 3 mps 736 mmHg 8%
    17:00 +35°C° 0 mm 3 mps 736 mmHg 10%
    18:00 +31°C° 0 mm 2 mps 736 mmHg 11%
    19:00 +31°C° 0 mm 2 mps 737 mmHg 12%
    20:00 +30°C° 0 mm 2 mps 738 mmHg 12%
    21:00 +30°C° 0 mm 3 mps 738 mmHg 13%
    22:00 +29°C° 0 mm 3 mps 738 mmHg 13%
    23:00 +29°C° 0 mm 3 mps 738 mmHg 13%

    Day after tomorrow, 19 January, Saturday

    Time Temperature Precipitation Wind Pressure Humidity
    00:00 +28°C° 0 mm 4 mps 738 mmHg 14%
    01:00 +28°C° 0 mm 4 mps 738 mmHg 14%
    02:00 +27°C° 0 mm 4 mps 737 mmHg 14%
    03:00 +26°C° 0 mm 4 mps 737 mmHg 15%
    04:00 +26°C° 0 mm 4 mps 737 mmHg 15%
    05:00 +26°C° 0 mm 4 mps 737 mmHg 14%
    06:00 +25°C° 0 mm 4 mps 738 mmHg 14%
    07:00 +28°C° 0 mm 5 mps 738 mmHg 12%
    08:00 +30°C° 0 mm 6 mps 739 mmHg 11%
    09:00 +33°C° 0 mm 7 mps 739 mmHg 9%
    10:00 +36°C° 0 mm 7 mps 739 mmHg 10%
    11:00 +39°C° 0 mm 7 mps 738 mmHg 10%
    12:00 +41°C° 0 mm 6 mps 738 mmHg 10%
    13:00 +41°C° 0 mm 6 mps 737 mmHg 11%
    14:00 +42°C° 0 mm 5 mps 737 mmHg 12%
    15:00 +42°C° 0 mm 4 mps 736 mmHg 13%
    16:00 +40°C° 0 mm 4 mps 736 mmHg 17%
    17:00 +37°C° 0 mm 3 mps 736 mmHg 20%
    18:00 +34°C° 0 mm 2 mps 737 mmHg 23%
    19:00 +34°C° 0 mm 2 mps 737 mmHg 28%
    20:00 +33°C° 0 mm 3 mps 738 mmHg 33%
    21:00 +33°C° 0 mm 3 mps 738 mmHg 38%
    22:00 +33°C° 0 mm 3 mps 738 mmHg 37%
    23:00 +33°C° 0 mm 4 mps 738 mmHg 35%

    20 January, Sunday

    Time Temperature Precipitation Wind Pressure Humidity
    00:00 +32°C° 0 mm 4 mps 738 mmHg 34%
    01:00 +32°C° 0 mm 4 mps 738 mmHg 27%
    02:00 +30°C° 0 mm 5 mps 738 mmHg 19%
    03:00 +30°C° 0 mm 6 mps 738 mmHg 11%
    04:00 +29°C° 0 mm 5 mps 738 mmHg 12%
    05:00 +28°C° 0 mm 4 mps 738 mmHg 13%
    06:00 +28°C° 0 mm 4 mps 739 mmHg 13%
    07:00 +29°C° 0 mm 5 mps 739 mmHg 13%
    08:00 +30°C° 0 mm 6 mps 740 mmHg 13%
    09:00 +32°C° 0 mm 6 mps 741 mmHg 13%
    10:00 +34°C° 0 mm 6 mps 740 mmHg 12%
    11:00 +36°C° 0 mm 5 mps 740 mmHg 11%
    12:00 +39°C° 0 mm 5 mps 739 mmHg 10%
    13:00 +39°C° 0 mm 5 mps 738 mmHg 10%
    14:00 +40°C° 0 mm 5 mps 738 mmHg 10%
    15:00 +40°C° 0 mm 4 mps 737 mmHg 10%
    16:00 +37°C° 0 mm 4 mps 737 mmHg 11%
    17:00 +35°C° 0 mm 4 mps 738 mmHg 11%
    18:00 +34°C° 0 mm 4 mps 738 mmHg 12%
    19:00 +32°C° 0 mm 4 mps 738 mmHg 12%
    20:00 +30°C° 0 mm 4 mps 739 mmHg 12%
    21:00 +29°C° 0 mm 4 mps 740 mmHg 12%
    22:00 +28°C° 0 mm 4 mps 739 mmHg 12%
    23:00 +28°C° 0 mm 4 mps 739 mmHg 12%

    21 January, Monday

    Time Temperature Precipitation Wind Pressure Humidity
    00:00 +27°C° 0 mm 4 mps 739 mmHg 12%
    01:00 +27°C° 0 mm 4 mps 739 mmHg 12%
    02:00 +26°C° 0 mm 4 mps 738 mmHg 12%
    03:00 +26°C° 0 mm 4 mps 738 mmHg 12%
    04:00 +25°C° 0 mm 4 mps 739 mmHg 11%
    05:00 +25°C° 0 mm 4 mps 739 mmHg 11%
    06:00 +23°C° 0 mm 4 mps 739 mmHg 10%
    07:00 +26°C° 0 mm 4 mps 740 mmHg 8%
    08:00 +28°C° 0 mm 5 mps 740 mmHg 7%
    09:00 +29°C° 0 mm 5 mps 741 mmHg 5%
    10:00 +32°C° 0 mm 4 mps 741 mmHg 5%
    11:00 +34°C° 0 mm 4 mps 740 mmHg 5%
    12:00 +36°C° 0 mm 3 mps 740 mmHg 5%
    13:00 +37°C° 0 mm 3 mps 739 mmHg 5%
    14:00 +38°C° 0 mm 4 mps 738 mmHg 5%
    15:00 +40°C° 0 mm 4 mps 737 mmHg 6%
    16:00 +36°C° 0 mm 4 mps 737 mmHg 6%
    17:00 +34°C° 0 mm 4 mps 738 mmHg 7%
    18:00 +31°C° 0 mm 3 mps 738 mmHg 8%
    19:00 +30°C° 0 mm 3 mps 738 mmHg 8%
    20:00 +29°C° 0 mm 3 mps 739 mmHg 8%
    21:00 +28°C° 0 mm 4 mps 739 mmHg 7%
    22:00 +27°C° 0 mm 3 mps 739 mmHg 7%
    23:00 +27°C° 0 mm 3 mps 739 mmHg 7%

    22 January, Tuesday

    Time Temperature Precipitation Wind Pressure Humidity
    00:00 +26°C° 0 mm 3 mps 739 mmHg 6%
    01:00 +25°C° 0 mm 3 mps 738 mmHg 6%
    02:00 +25°C° 0 mm 3 mps 738 mmHg 6%
    03:00 +23°C° 0 mm 4 mps 738 mmHg 5%
    04:00 +22°C° 0 mm 4 mps 738 mmHg 6%
    05:00 +22°C° 0 mm 3 mps 738 mmHg 6%
    06:00 +21°C° 0 mm 3 mps 739 mmHg 6%
    07:00 +23°C° 0 mm 4 mps 739 mmHg 6%
    08:00 +26°C° 0 mm 4 mps 740 mmHg 5%
    09:00 +29°C° 0 mm 5 mps 740 mmHg 5%
    10:00 +32°C° 0 mm 5 mps 740 mmHg 4%
    11:00 +34°C° 0 mm 5 mps 740 mmHg 4%
    12:00 +36°C° 0 mm 4 mps 739 mmHg 3%
    13:00 +37°C° 0 mm 5 mps 738 mmHg 3%
    14:00 +37°C° 0 mm 5 mps 738 mmHg 3%
    15:00 +39°C° 0 mm 5 mps 737 mmHg 3%
    16:00 +35°C° 0 mm 4 mps 737 mmHg 4%
    17:00 +33°C° 0 mm 4 mps 737 mmHg 4%
    18:00 +30°C° 0 mm 3 mps 737 mmHg 5%
    19:00 +29°C° 0 mm 3 mps 738 mmHg 5%
    20:00 +28°C° 0 mm 3 mps 738 mmHg 5%
    21:00 +26°C° 0 mm 3 mps 739 mmHg 5%
    22:00 +26°C° 0 mm 3 mps 738 mmHg 5%
    23:00 +25°C° 0 mm 3 mps 738 mmHg 5%
    Show more